Time,TemperatureF,DewpointF,PressureIn,WindDirection,WindDirectionDegrees,WindSpeedMPH,WindSpeedGustMPH,Humidity,HourlyPrecipIn,Conditions,Clouds,dailyrainin,SoftwareType,DateUTC
2013-06-17 00:02:00,79.3,76.4,30.06,NNW,342,0.0,0.0,91,0.00,,,0.00,Wunderground v.1.15,2013-06-17 04:02:00,
2013-06-17 00:03:00,79.3,76.4,30.06,NNW,342,0.0,0.0,91,0.00,,,0.00,Wunderground v.1.15,2013-06-17 04:03:00,
2013-06-17 00:07:00,79.3,76.4,30.06,NNW,342,0.0,0.0,91,0.00,,,0.00,Wunderground v.1.15,2013-06-17 04:07:00,
2013-06-17 00:12:00,79.4,76.5,30.06,NNW,342,0.0,0.0,91,0.00,,,0.00,Wunderground v.1.15,2013-06-17 04:12:00,
2013-06-17 00:14:00,79.4,76.5,30.06,NNW,342,0.0,0.0,91,0.00,,,0.00,Wunderground v.1.15,2013-06-17 04:14:00,
2013-06-17 00:19:00,79.3,76.4,30.05,NNW,342,0.0,0.0,91,0.00,,,0.00,Wunderground v.1.15,2013-06-17 04:19:00,
2013-06-17 00:25:00,79.4,76.5,30.05,NNW,342,0.0,0.0,91,0.00,,,0.00,Wunderground v.1.15,2013-06-17 04:25:00,
2013-06-17 00:30:00,79.5,76.6,30.05,NNW,342,0.0,0.0,91,0.00,,,0.00,Wunderground v.1.15,2013-06-17 04:30:00,
2013-06-17 00:36:00,79.5,76.6,30.05,NNW,342,0.0,0.0,91,0.00,,,0.00,Wunderground v.1.15,2013-06-17 04:36:00,
2013-06-17 00:42:00,79.4,76.5,30.05,NNW,342,0.0,0.0,91,0.00,,,0.00,Wunderground v.1.15,2013-06-17 04:42:00,
2013-06-17 00:47:00,79.4,76.5,30.05,NNW,342,0.0,0.0,91,0.00,,,0.00,Wunderground v.1.15,2013-06-17 04:47:00,
2013-06-17 00:53:00,79.4,76.5,30.05,NNW,342,0.0,0.0,91,0.00,,,0.00,Wunderground v.1.15,2013-06-17 04:53:00,
2013-06-17 00:59:00,79.2,76.3,30.05,NNW,342,0.0,0.0,91,0.00,,,0.00,Wunderground v.1.15,2013-06-17 04:59:00,
2013-06-17 01:04:00,79.2,76.3,30.05,NNW,342,0.0,0.0,91,0.00,,,0.00,Wunderground v.1.15,2013-06-17 05:04:00,
2013-06-17 01:09:00,79.1,76.2,30.06,NNW,342,0.0,0.0,91,0.00,,,0.00,Wunderground v.1.15,2013-06-17 05:09:00,
2013-06-17 01:15:00,79.0,76.1,30.06,NNW,342,0.0,0.0,91,0.00,,,0.00,Wunderground v.1.15,2013-06-17 05:15:00,
2013-06-17 01:20:00,79.0,76.1,30.06,NNW,342,0.0,0.0,91,0.00,,,0.00,Wunderground v.1.15,2013-06-17 05:20:00,
2013-06-17 01:26:00,79.1,76.2,30.06,NNW,342,0.0,1.0,91,0.00,,,0.00,Wunderground v.1.15,2013-06-17 05:26:00,
2013-06-17 01:32:00,79.1,76.2,30.05,NNW,342,0.0,0.0,91,0.00,,,0.00,Wunderground v.1.15,2013-06-17 05:32:00,
2013-06-17 01:37:00,79.0,76.1,30.05,NNW,342,0.0,0.0,91,0.00,,,0.00,Wunderground v.1.15,2013-06-17 05:37:00,
2013-06-17 01:43:00,78.9,76.0,30.05,NNW,342,0.0,0.0,91,0.00,,,0.00,Wunderground v.1.15,2013-06-17 05:43:00,
2013-06-17 01:48:00,78.8,75.9,30.04,NNW,342,0.0,0.0,91,0.00,,,0.00,Wunderground v.1.15,2013-06-17 05:48:00,
2013-06-17 01:54:00,78.7,75.8,30.05,NNW,342,0.0,0.0,91,0.00,,,0.00,Wunderground v.1.15,2013-06-17 05:54:00,
2013-06-17 02:00:00,78.6,75.8,30.04,NNW,342,0.0,0.0,91,0.00,,,0.00,Wunderground v.1.15,2013-06-17 06:00:00,
2013-06-17 02:05:00,78.5,75.7,30.04,NNW,342,0.0,0.0,91,0.00,,,0.00,Wunderground v.1.15,2013-06-17 06:05:00,
2013-06-17 02:10:00,78.5,75.7,30.03,NNW,342,0.0,0.0,91,0.00,,,0.00,Wunderground v.1.15,2013-06-17 06:10:00,
2013-06-17 02:15:00,78.5,75.7,30.03,NNW,342,0.0,0.0,91,0.00,,,0.00,Wunderground v.1.15,2013-06-17 06:15:00,
2013-06-17 02:20:00,78.5,75.7,30.03,NNW,342,0.0,0.0,91,0.00,,,0.00,Wunderground v.1.15,2013-06-17 06:20:00,
2013-06-17 02:25:00,78.5,75.7,30.03,NNW,342,0.0,0.0,91,0.00,,,0.00,Wunderground v.1.15,2013-06-17 06:25:00,
2013-06-17 02:30:00,78.4,75.6,30.03,NNW,342,0.0,0.0,91,0.00,,,0.00,Wunderground v.1.15,2013-06-17 06:30:00,
2013-06-17 02:35:00,78.4,75.6,30.03,NNW,342,0.0,0.0,91,0.00,,,0.00,Wunderground v.1.15,2013-06-17 06:35:00,
2013-06-17 02:40:00,78.3,75.5,30.02,NNW,342,0.0,0.0,91,0.00,,,0.00,Wunderground v.1.15,2013-06-17 06:40:00,
2013-06-17 02:45:00,78.2,75.4,30.02,NNW,342,0.0,0.0,91,0.00,,,0.00,Wunderground v.1.15,2013-06-17 06:45:00,
2013-06-17 02:50:00,78.2,75.4,30.02,NNW,342,0.0,0.0,91,0.00,,,0.00,Wunderground v.1.15,2013-06-17 06:50:00,
2013-06-17 02:55:00,78.1,75.3,30.01,NNW,342,0.0,0.0,91,0.00,,,0.00,Wunderground v.1.15,2013-06-17 06:55:00,
2013-06-17 03:00:00,78.1,75.3,30.01,NNW,342,0.0,0.0,91,0.00,,,0.00,Wunderground v.1.15,2013-06-17 07:00:00,
2013-06-17 03:05:00,78.0,75.2,30.01,NNW,342,0.0,1.0,91,0.00,,,0.00,Wunderground v.1.15,2013-06-17 07:05:00,
2013-06-17 03:10:00,78.0,75.2,30.01,NNW,342,0.0,0.0,91,0.00,,,0.00,Wunderground v.1.15,2013-06-17 07:10:00,
2013-06-17 03:15:00,77.9,75.1,30.01,NNW,342,0.0,0.0,91,0.00,,,0.00,Wunderground v.1.15,2013-06-17 07:15:00,
2013-06-17 07:18:00,77.1,74.3,30.03,NNW,342,0.0,0.0,91,0.00,,,0.00,Wunderground v.1.15,2013-06-17 11:18:00,
2013-06-17 07:23:00,77.4,74.6,30.02,NNW,342,0.0,0.0,91,0.00,,,0.00,Wunderground v.1.15,2013-06-17 11:23:00,
2013-06-17 07:28:00,77.6,74.8,30.02,NNW,342,0.0,0.0,91,0.00,,,0.00,Wunderground v.1.15,2013-06-17 11:28:00,
2013-06-17 07:33:00,77.7,74.9,30.03,NNW,342,0.0,0.0,91,0.00,,,0.00,Wunderground v.1.15,2013-06-17 11:33:00,
2013-06-17 07:38:00,77.8,75.0,30.02,NNW,342,0.0,0.0,91,0.00,,,0.00,Wunderground v.1.15,2013-06-17 11:38:00,
2013-06-17 07:43:00,78.0,75.2,30.03,NNW,342,0.0,0.0,91,0.00,,,0.00,Wunderground v.1.15,2013-06-17 11:43:00,
2013-06-17 07:48:00,78.1,75.3,30.02,NNW,342,0.0,0.0,91,0.00,,,0.00,Wunderground v.1.15,2013-06-17 11:48:00,
2013-06-17 07:54:00,78.4,75.6,30.03,NNW,342,0.0,0.0,91,0.00,,,0.00,Wunderground v.1.15,2013-06-17 11:54:00,
2013-06-17 07:59:00,78.5,75.7,30.03,NNW,342,0.0,0.0,91,0.00,,,0.00,Wunderground v.1.15,2013-06-17 11:59:00,
2013-06-17 08:04:00,78.6,75.8,30.03,NNW,342,0.0,0.0,91,0.00,,,0.00,Wunderground v.1.15,2013-06-17 12:04:00,
2013-06-17 08:09:00,78.8,75.9,30.03,NNW,342,0.0,0.0,91,0.00,,,0.00,Wunderground v.1.15,2013-06-17 12:09:00,
2013-06-17 08:14:00,78.8,75.9,30.04,NNW,342,0.0,0.0,91,0.00,,,0.00,Wunderground v.1.15,2013-06-17 12:14:00,
2013-06-17 08:19:00,79.0,76.1,30.05,NNW,342,0.0,1.0,91,0.00,,,0.00,Wunderground v.1.15,2013-06-17 12:19:00,
2013-06-17 08:24:00,79.2,76.3,30.05,NNW,342,0.0,2.0,91,0.00,,,0.00,Wunderground v.1.15,2013-06-17 12:24:00,
2013-06-17 08:29:00,79.3,76.4,30.05,NNW,342,0.0,2.0,91,0.00,,,0.00,Wunderground v.1.15,2013-06-17 12:29:00,
2013-06-17 08:34:00,79.5,76.3,30.05,NNW,342,0.0,1.0,90,0.00,,,0.00,Wunderground v.1.15,2013-06-17 12:34:00,
2013-06-17 08:39:00,79.7,76.5,30.05,NNW,342,0.0,0.0,90,0.00,,,0.00,Wunderground v.1.15,2013-06-17 12:39:00,
2013-06-17 08:44:00,80.1,76.6,30.05,NNW,342,0.0,1.0,89,0.00,,,0.00,Wunderground v.1.15,2013-06-17 12:44:00,
2013-06-17 08:49:00,80.5,77.0,30.05,NNW,342,0.0,0.0,89,0.00,,,0.00,Wunderground v.1.15,2013-06-17 12:49:00,
2013-06-17 08:54:00,80.8,76.9,30.05,NNW,342,0.0,0.0,88,0.00,,,0.00,Wunderground v.1.15,2013-06-17 12:54:00,
2013-06-17 08:59:00,81.3,77.1,30.05,East,90,0.0,0.0,87,0.00,,,0.00,Wunderground v.1.15,2013-06-17 12:59:00,
2013-06-17 09:04:00,81.6,77.0,30.05,East,90,0.0,0.0,86,0.00,,,0.00,Wunderground v.1.15,2013-06-17 13:04:00,
2013-06-17 09:09:00,81.9,76.9,30.05,East,90,0.0,0.0,85,0.00,,,0.00,Wunderground v.1.15,2013-06-17 13:09:00,
2013-06-17 09:14:00,82.4,77.4,30.05,East,90,0.0,1.0,85,0.00,,,0.00,Wunderground v.1.15,2013-06-17 13:14:00,
2013-06-17 09:19:00,82.7,77.7,30.05,East,90,0.0,0.0,85,0.00,,,0.00,Wunderground v.1.15,2013-06-17 13:19:00,
2013-06-17 09:24:00,83.0,77.3,30.04,East,90,0.0,2.0,83,0.00,,,0.00,Wunderground v.1.15,2013-06-17 13:24:00,
2013-06-17 09:29:00,83.2,77.1,30.05,East,90,0.0,0.0,82,0.00,,,0.00,Wunderground v.1.15,2013-06-17 13:29:00,
2013-06-17 09:34:00,83.5,77.8,30.04,East,90,0.0,1.0,83,0.00,,,0.00,Wunderground v.1.15,2013-06-17 13:34:00,
2013-06-17 09:39:00,83.5,77.1,30.05,East,90,0.0,0.0,81,0.00,,,0.00,Wunderground v.1.15,2013-06-17 13:39:00,
2013-06-17 09:44:00,83.4,77.0,30.05,East,90,0.0,1.0,81,0.00,,,0.00,Wunderground v.1.15,2013-06-17 13:44:00,
2013-06-17 09:49:00,83.4,76.6,30.05,East,90,0.0,0.0,80,0.00,,,0.00,Wunderground v.1.15,2013-06-17 13:49:00,
2013-06-17 09:54:00,83.5,75.9,30.05,SE,138,0.0,2.0,78,0.00,,,0.00,Wunderground v.1.15,2013-06-17 13:54:00,
2013-06-17 09:59:00,83.8,76.6,30.05,SE,138,0.0,0.0,79,0.00,,,0.00,Wunderground v.1.15,2013-06-17 13:59:00,
2013-06-17 10:04:00,83.9,76.7,30.04,SE,138,0.0,0.0,79,0.00,,,0.00,Wunderground v.1.15,2013-06-17 14:04:00,
2013-06-17 10:09:00,83.9,76.3,30.05,SE,138,0.0,0.0,78,0.00,,,0.00,Wunderground v.1.15,2013-06-17 14:09:00,
2013-06-17 10:14:00,84.3,76.3,30.05,SE,138,0.0,1.0,77,0.00,,,0.00,Wunderground v.1.15,2013-06-17 14:14:00,
2013-06-17 10:20:00,84.8,76.0,30.04,SE,144,0.0,0.0,75,0.00,,,0.00,Wunderground v.1.15,2013-06-17 14:20:00,
2013-06-17 10:25:00,85.0,76.2,30.04,SE,144,0.0,3.0,75,0.00,,,0.00,Wunderground v.1.15,2013-06-17 14:25:00,
2013-06-17 10:30:00,85.0,75.4,30.05,SE,144,0.0,2.0,73,0.00,,,0.00,Wunderground v.1.15,2013-06-17 14:30:00,
2013-06-17 10:35:00,85.2,75.6,30.05,SE,144,0.0,2.0,73,0.00,,,0.00,Wunderground v.1.15,2013-06-17 14:35:00,
2013-06-17 10:40:00,85.3,76.1,30.04,SE,144,0.0,0.0,74,0.00,,,0.00,Wunderground v.1.15,2013-06-17 14:40:00,
2013-06-17 10:45:00,85.4,74.9,30.05,SE,144,0.0,3.0,71,0.00,,,0.00,Wunderground v.1.15,2013-06-17 14:45:00,
2013-06-17 10:50:00,85.8,75.3,30.05,SE,144,0.0,1.0,71,0.00,,,0.00,Wunderground v.1.15,2013-06-17 14:50:00,
2013-06-17 10:55:00,86.2,74.8,30.05,SW,234,4.0,5.0,69,0.00,,,0.00,Wunderground v.1.15,2013-06-17 14:55:00,
2013-06-17 11:00:00,86.4,74.6,30.05,South,169,1.0,1.0,68,0.00,,,0.00,Wunderground v.1.15,2013-06-17 15:00:00,
2013-06-17 11:05:00,86.7,74.4,30.05,South,178,1.0,6.0,67,0.00,,,0.00,Wunderground v.1.15,2013-06-17 15:05:00,
2013-06-17 11:10:00,86.9,75.1,30.05,SW,234,0.0,4.0,68,0.00,,,0.00,Wunderground v.1.15,2013-06-17 15:10:00,
2013-06-17 11:15:00,87.2,75.8,30.05,WSW,240,2.0,4.0,69,0.00,,,0.00,Wunderground v.1.15,2013-06-17 15:15:00,
2013-06-17 11:20:00,87.6,74.4,30.05,SSW,205,0.0,4.0,65,0.00,,,0.00,Wunderground v.1.15,2013-06-17 15:20:00,
2013-06-17 11:25:00,87.6,74.8,30.05,SSW,209,2.0,6.0,66,0.00,,,0.00,Wunderground v.1.15,2013-06-17 15:25:00,
2013-06-17 11:30:00,87.5,75.2,30.05,SSW,205,3.0,4.0,67,0.00,,,0.00,Wunderground v.1.15,2013-06-17 15:30:00,
2013-06-17 11:35:00,87.5,74.7,30.05,SW,227,0.0,6.0,66,0.00,,,0.00,Wunderground v.1.15,2013-06-17 15:35:00,
2013-06-17 11:40:00,87.7,75.4,30.05,South,186,4.0,5.0,67,0.00,,,0.00,Wunderground v.1.15,2013-06-17 15:40:00,
2013-06-17 11:45:00,87.9,75.6,30.05,South,186,0.0,6.0,67,0.00,,,0.00,Wunderground v.1.15,2013-06-17 15:45:00,
2013-06-17 11:50:00,87.8,76.4,30.05,West,270,1.0,4.0,69,0.00,,,0.00,Wunderground v.1.15,2013-06-17 15:50:00,
2013-06-17 11:55:00,88.0,76.1,30.04,SW,219,5.0,5.0,68,0.00,,,0.00,Wunderground v.1.15,2013-06-17 15:55:00,
2013-06-17 12:00:00,88.1,76.6,30.04,SW,229,0.0,2.0,69,0.00,,,0.00,Wunderground v.1.15,2013-06-17 16:00:00,
2013-06-17 12:05:00,88.2,76.7,30.04,SW,226,7.0,7.0,69,0.00,,,0.00,Wunderground v.1.15,2013-06-17 16:05:00,
2013-06-17 12:10:00,88.2,76.7,30.04,SW,218,2.0,6.0,69,0.00,,,0.00,Wunderground v.1.15,2013-06-17 16:10:00,
2013-06-17 12:15:00,88.6,77.1,30.04,SW,218,2.0,6.0,69,0.00,,,0.00,Wunderground v.1.15,2013-06-17 16:15:00,
2013-06-17 12:20:00,88.7,76.8,30.04,SW,224,5.0,7.0,68,0.00,,,0.00,Wunderground v.1.15,2013-06-17 16:20:00,
2013-06-17 12:25:00,88.9,77.4,30.04,SW,225,4.0,7.0,69,0.00,,,0.00,Wunderground v.1.15,2013-06-17 16:25:00,
2013-06-17 12:30:00,88.5,76.1,30.04,SW,229,2.0,9.0,67,0.00,,,0.00,Wunderground v.1.15,2013-06-17 16:30:00,
2013-06-17 12:35:00,88.4,76.5,30.04,SW,234,1.0,10.0,68,0.00,,,0.00,Wunderground v.1.15,2013-06-17 16:35:00,
2013-06-17 12:41:00,88.7,76.3,30.04,South,182,1.0,9.0,67,0.00,,,0.00,Wunderground v.1.15,2013-06-17 16:41:00,
2013-06-17 12:46:00,88.9,76.1,30.04,South,177,3.0,9.0,66,0.00,,,0.00,Wunderground v.1.15,2013-06-17 16:46:00,
2013-06-17 12:51:00,88.9,76.1,30.04,SW,228,5.0,6.0,66,0.00,,,0.00,Wunderground v.1.15,2013-06-17 16:51:00,
2013-06-17 12:55:00,88.9,76.1,30.04,SSW,211,4.0,9.0,66,0.00,,,0.00,Wunderground v.1.15,2013-06-17 16:55:00,
2013-06-17 13:00:00,89.0,76.6,30.04,WSW,243,5.0,7.0,67,0.00,,,0.00,Wunderground v.1.15,2013-06-17 17:00:00,
2013-06-17 13:06:00,89.0,76.6,30.05,South,173,4.0,12.0,67,0.00,,,0.00,Wunderground v.1.15,2013-06-17 17:06:00,
2013-06-17 13:11:00,89.3,76.9,30.04,SW,220,2.0,7.0,67,0.00,,,0.00,Wunderground v.1.15,2013-06-17 17:11:00,
2013-06-17 13:16:00,89.4,77.4,30.04,SW,224,4.0,7.0,68,0.00,,,0.00,Wunderground v.1.15,2013-06-17 17:16:00,
2013-06-17 13:21:00,89.4,76.5,30.04,South,191,6.0,6.0,66,0.00,,,0.00,Wunderground v.1.15,2013-06-17 17:21:00,
2013-06-17 13:26:00,89.3,76.4,30.05,SSE,165,3.0,10.0,66,0.00,,,0.00,Wunderground v.1.15,2013-06-17 17:26:00,
2013-06-17 13:31:00,89.0,76.2,30.05,WSW,249,7.0,10.0,66,0.00,,,0.00,Wunderground v.1.15,2013-06-17 17:31:00,
2013-06-17 13:36:00,88.9,76.5,30.04,SW,221,4.0,10.0,67,0.00,,,0.00,Wunderground v.1.15,2013-06-17 17:36:00,
2013-06-17 13:41:00,89.0,76.2,30.04,WSW,246,3.0,6.0,66,0.00,,,0.00,Wunderground v.1.15,2013-06-17 17:41:00,
2013-06-17 13:46:00,89.0,77.1,30.04,NW,311,2.0,10.0,68,0.00,,,0.00,Wunderground v.1.15,2013-06-17 17:46:00,
2013-06-17 13:51:00,89.3,76.9,30.04,South,175,3.0,5.0,67,0.00,,,0.00,Wunderground v.1.15,2013-06-17 17:51:00,
2013-06-17 13:56:00,89.7,76.8,30.04,WSW,246,4.0,8.0,66,0.00,,,0.00,Wunderground v.1.15,2013-06-17 17:56:00,
2013-06-17 14:01:00,89.8,76.9,30.03,WSW,238,4.0,10.0,66,0.00,,,0.00,Wunderground v.1.15,2013-06-17 18:01:00,
2013-06-17 14:06:00,89.6,77.2,30.03,SSW,201,3.0,10.0,67,0.00,,,0.00,Wunderground v.1.15,2013-06-17 18:06:00,
2013-06-17 14:11:00,89.6,77.2,30.03,SW,217,3.0,7.0,67,0.00,,,0.00,Wunderground v.1.15,2013-06-17 18:11:00,
2013-06-17 14:16:00,89.8,77.4,30.03,SW,224,8.0,9.0,67,0.00,,,0.00,Wunderground v.1.15,2013-06-17 18:16:00,
2013-06-17 14:21:00,89.7,76.4,30.02,WNW,296,1.0,6.0,65,0.00,,,0.00,Wunderground v.1.15,2013-06-17 18:21:00,
2013-06-17 14:26:00,89.7,76.4,30.02,WSW,239,2.0,6.0,65,0.00,,,0.00,Wunderground v.1.15,2013-06-17 18:26:00,
2013-06-17 14:31:00,89.9,76.6,30.02,SSE,167,1.0,6.0,65,0.00,,,0.00,Wunderground v.1.15,2013-06-17 18:31:00,
2013-06-17 14:36:00,90.0,76.6,30.02,SW,232,3.0,6.0,65,0.00,,,0.00,Wunderground v.1.15,2013-06-17 18:36:00,
2013-06-17 14:41:00,89.8,76.5,30.02,South,176,2.0,7.0,65,0.00,,,0.00,Wunderground v.1.15,2013-06-17 18:41:00,
2013-06-17 14:46:00,89.7,77.3,30.01,SW,226,2.0,9.0,67,0.00,,,0.00,Wunderground v.1.15,2013-06-17 18:46:00,
2013-06-17 14:51:00,89.5,76.6,30.01,SSW,212,7.0,7.0,66,0.00,,,0.00,Wunderground v.1.15,2013-06-17 18:51:00,
2013-06-17 14:56:00,89.6,76.3,30.01,SSW,193,4.0,10.0,65,0.00,,,0.00,Wunderground v.1.15,2013-06-17 18:56:00,
2013-06-17 15:01:00,89.2,76.4,30.01,SW,227,2.0,10.0,66,0.00,,,0.00,Wunderground v.1.15,2013-06-17 19:01:00,
2013-06-17 15:06:00,89.5,76.2,30.02,SSW,206,4.0,10.0,65,0.00,,,0.00,Wunderground v.1.15,2013-06-17 19:06:00,
2013-06-17 15:11:00,89.3,76.0,30.02,SW,236,3.0,10.0,65,0.00,,,0.00,Wunderground v.1.15,2013-06-17 19:11:00,
2013-06-17 15:17:00,89.4,76.1,30.01,South,189,2.0,10.0,65,0.00,,,0.00,Wunderground v.1.15,2013-06-17 19:17:00,
2013-06-17 15:22:00,89.7,76.4,30.02,SW,219,3.0,11.0,65,0.00,,,0.00,Wunderground v.1.15,2013-06-17 19:22:00,
2013-06-17 15:27:00,89.4,75.6,30.01,SW,229,5.0,11.0,64,0.00,,,0.00,Wunderground v.1.15,2013-06-17 19:27:00,
2013-06-17 15:32:00,89.1,76.7,30.01,SSW,212,4.0,12.0,67,0.00,,,0.00,Wunderground v.1.15,2013-06-17 19:32:00,
2013-06-17 15:37:00,89.1,75.8,30.01,WSW,240,9.0,12.0,65,0.00,,,0.00,Wunderground v.1.15,2013-06-17 19:37:00,
2013-06-17 15:42:00,89.2,75.9,30.01,SW,232,4.0,9.0,65,0.00,,,0.00,Wunderground v.1.15,2013-06-17 19:42:00,
2013-06-17 15:47:00,89.2,76.4,30.01,SW,219,7.0,9.0,66,0.00,,,0.00,Wunderground v.1.15,2013-06-17 19:47:00,
2013-06-17 15:52:00,89.1,76.7,30.01,SW,219,8.0,12.0,67,0.00,,,0.00,Wunderground v.1.15,2013-06-17 19:52:00,
2013-06-17 15:57:00,88.7,76.8,30.01,West,262,4.0,12.0,68,0.00,,,0.00,Wunderground v.1.15,2013-06-17 19:57:00,
2013-06-17 16:02:00,88.8,76.9,30.01,SW,230,4.0,7.0,68,0.00,,,0.00,Wunderground v.1.15,2013-06-17 20:02:00,
2013-06-17 16:07:00,89.2,76.4,30.01,SW,215,4.0,9.0,66,0.00,,,0.00,Wunderground v.1.15,2013-06-17 20:07:00,
2013-06-17 16:12:00,89.3,76.0,30.00,WSW,256,4.0,9.0,65,0.00,,,0.00,Wunderground v.1.15,2013-06-17 20:12:00,
2013-06-17 16:17:00,89.3,75.0,30.00,WSW,245,3.0,9.0,63,0.00,,,0.00,Wunderground v.1.15,2013-06-17 20:17:00,
2013-06-17 16:22:00,89.3,75.5,30.00,SW,235,6.0,9.0,64,0.00,,,0.00,Wunderground v.1.15,2013-06-17 20:22:00,
2013-06-17 16:27:00,89.0,75.7,30.00,SW,225,3.0,10.0,65,0.00,,,0.00,Wunderground v.1.15,2013-06-17 20:27:00,
2013-06-17 16:32:00,89.0,75.2,30.00,South,182,2.0,6.0,64,0.00,,,0.00,Wunderground v.1.15,2013-06-17 20:32:00,
2013-06-17 16:37:00,89.3,75.5,30.00,WSW,248,3.0,9.0,64,0.00,,,0.00,Wunderground v.1.15,2013-06-17 20:37:00,
2013-06-17 16:42:00,89.6,75.8,30.00,WSW,241,5.0,7.0,64,0.00,,,0.00,Wunderground v.1.15,2013-06-17 20:42:00,
2013-06-17 16:47:00,89.4,76.5,29.99,WSW,244,0.0,7.0,66,0.00,,,0.00,Wunderground v.1.15,2013-06-17 20:47:00,
2013-06-17 16:52:00,89.8,77.4,29.99,WSW,237,1.0,4.0,67,0.00,,,0.00,Wunderground v.1.15,2013-06-17 20:52:00,
2013-06-17 16:57:00,90.3,76.9,29.99,WNW,292,0.0,5.0,65,0.00,,,0.00,Wunderground v.1.15,2013-06-17 20:57:00,
2013-06-17 17:02:00,90.2,77.3,29.99,NW,323,0.0,5.0,66,0.00,,,0.00,Wunderground v.1.15,2013-06-17 21:02:00,
2013-06-17 17:07:00,89.7,76.8,29.98,SW,216,4.0,9.0,66,0.00,,,0.00,Wunderground v.1.15,2013-06-17 21:07:00,
2013-06-17 17:12:00,89.4,76.1,29.99,SW,217,2.0,5.0,65,0.00,,,0.00,Wunderground v.1.15,2013-06-17 21:12:00,
2013-06-17 17:17:00,89.2,77.3,29.99,WSW,245,2.0,5.0,68,0.00,,,0.00,Wunderground v.1.15,2013-06-17 21:17:00,
2013-06-17 17:22:00,89.1,76.7,29.99,WSW,248,3.0,7.0,67,0.00,,,0.00,Wunderground v.1.15,2013-06-17 21:22:00,
2013-06-17 17:27:00,89.0,77.1,29.98,SW,218,0.0,7.0,68,0.00,,,0.00,Wunderground v.1.15,2013-06-17 21:27:00,
2013-06-17 17:32:00,88.8,77.3,29.98,WSW,240,1.0,5.0,69,0.00,,,0.00,Wunderground v.1.15,2013-06-17 21:32:00,
2013-06-17 17:37:00,88.8,77.3,29.98,WSW,254,5.0,6.0,69,0.00,,,0.00,Wunderground v.1.15,2013-06-17 21:37:00,
2013-06-17 17:42:00,88.8,77.7,29.98,WSW,238,2.0,7.0,70,0.00,,,0.00,Wunderground v.1.15,2013-06-17 21:42:00,
2013-06-17 17:47:00,88.8,77.3,29.98,WSW,252,2.0,9.0,69,0.00,,,0.00,Wunderground v.1.15,2013-06-17 21:47:00,
2013-06-17 17:52:00,88.7,77.2,29.98,West,263,0.0,5.0,69,0.00,,,0.00,Wunderground v.1.15,2013-06-17 21:52:00,
2013-06-17 17:57:00,88.6,77.6,29.98,SW,232,0.0,6.0,70,0.00,,,0.00,Wunderground v.1.15,2013-06-17 21:57:00,
2013-06-17 18:02:00,88.3,76.8,29.98,SSW,212,3.0,7.0,69,0.00,,,0.00,Wunderground v.1.15,2013-06-17 22:02:00,
2013-06-17 18:07:00,87.9,77.3,29.99,WSW,244,1.0,9.0,71,0.00,,,0.00,Wunderground v.1.15,2013-06-17 22:07:00,
2013-06-17 18:12:00,87.8,77.2,29.98,SW,235,1.0,6.0,71,0.00,,,0.00,Wunderground v.1.15,2013-06-17 22:12:00,
2013-06-17 18:17:00,87.8,77.2,29.99,WSW,240,2.0,6.0,71,0.00,,,0.00,Wunderground v.1.15,2013-06-17 22:17:00,
2013-06-17 18:22:00,87.7,76.3,29.99,WSW,240,0.0,6.0,69,0.00,,,0.00,Wunderground v.1.15,2013-06-17 22:22:00,
2013-06-17 18:27:00,87.6,76.6,29.99,WSW,240,0.0,6.0,70,0.00,,,0.00,Wunderground v.1.15,2013-06-17 22:27:00,
2013-06-17 18:32:00,87.7,76.7,29.99,WSW,248,1.0,6.0,70,0.00,,,0.00,Wunderground v.1.15,2013-06-17 22:32:00,
2013-06-17 18:37:00,87.2,76.6,29.98,WSW,254,3.0,7.0,71,0.00,,,0.00,Wunderground v.1.15,2013-06-17 22:37:00,
2013-06-17 18:42:00,87.0,76.9,29.98,SSW,209,4.0,6.0,72,0.00,,,0.00,Wunderground v.1.15,2013-06-17 22:42:00,
2013-06-17 18:47:00,86.8,76.7,29.99,SW,230,4.0,6.0,72,0.00,,,0.00,Wunderground v.1.15,2013-06-17 22:47:00,
2013-06-17 18:52:00,86.7,76.6,29.99,SSW,213,4.0,7.0,72,0.00,,,0.00,Wunderground v.1.15,2013-06-17 22:52:00,
2013-06-17 18:58:00,86.6,76.5,29.99,SSW,198,4.0,7.0,72,0.00,,,0.00,Wunderground v.1.15,2013-06-17 22:58:00,
2013-06-17 19:03:00,86.5,76.4,29.99,WSW,240,0.0,7.0,72,0.00,,,0.00,Wunderground v.1.15,2013-06-17 23:03:00,
2013-06-17 19:08:00,86.3,76.2,29.99,SSW,205,5.0,9.0,72,0.00,,,0.00,Wunderground v.1.15,2013-06-17 23:08:00,
2013-06-17 19:13:00,86.1,75.6,29.99,WSW,246,2.0,9.0,71,0.00,,,0.00,Wunderground v.1.15,2013-06-17 23:13:00,
2013-06-17 19:18:00,86.0,75.9,29.99,SSW,199,4.0,9.0,72,0.00,,,0.00,Wunderground v.1.15,2013-06-17 23:18:00,
2013-06-17 19:23:00,86.0,75.9,29.99,SW,232,1.0,9.0,72,0.00,,,0.00,Wunderground v.1.15,2013-06-17 23:23:00,
2013-06-17 19:28:00,85.9,76.6,30.00,SW,232,0.0,9.0,74,0.00,,,0.00,Wunderground v.1.15,2013-06-17 23:28:00,
2013-06-17 19:33:00,85.9,76.6,30.00,SW,230,0.0,4.0,74,0.00,,,0.00,Wunderground v.1.15,2013-06-17 23:33:00,
2013-06-17 19:38:00,85.7,76.9,30.00,WSW,240,0.0,6.0,75,0.00,,,0.00,Wunderground v.1.15,2013-06-17 23:38:00,
2013-06-17 19:43:00,85.5,76.3,30.00,WSW,252,0.0,4.0,74,0.00,,,0.00,Wunderground v.1.15,2013-06-17 23:43:00,
2013-06-17 19:49:00,85.4,76.2,30.00,WSW,252,0.0,1.0,74,0.00,,,0.00,Wunderground v.1.15,2013-06-17 23:49:00,
2013-06-17 19:54:00,85.2,76.0,30.00,WSW,239,0.0,4.0,74,0.00,,,0.00,Wunderground v.1.15,2013-06-17 23:54:00,
2013-06-17 19:59:00,85.1,76.3,30.00,South,190,2.0,3.0,75,0.00,,,0.00,Wunderground v.1.15,2013-06-17 23:59:00,
2013-06-17 20:04:00,85.0,76.2,30.00,WSW,244,3.0,5.0,75,0.00,,,0.00,Wunderground v.1.15,2013-06-18 00:04:00,
2013-06-17 20:09:00,84.9,76.5,30.00,SW,236,3.0,3.0,76,0.00,,,0.00,Wunderground v.1.15,2013-06-18 00:09:00,
2013-06-17 20:14:00,84.7,76.3,30.00,WSW,244,2.0,6.0,76,0.00,,,0.00,Wunderground v.1.15,2013-06-18 00:14:00,
2013-06-17 20:19:00,84.6,76.2,30.00,SW,223,0.0,2.0,76,0.00,,,0.00,Wunderground v.1.15,2013-06-18 00:19:00,
2013-06-17 20:24:00,84.6,76.6,30.00,WSW,237,0.0,4.0,77,0.00,,,0.00,Wunderground v.1.15,2013-06-18 00:24:00,
2013-06-17 20:29:00,84.5,76.5,30.00,WSW,237,0.0,0.0,77,0.00,,,0.00,Wunderground v.1.15,2013-06-18 00:29:00,
2013-06-17 20:34:00,84.3,75.9,30.01,WSW,237,0.0,3.0,76,0.00,,,0.00,Wunderground v.1.15,2013-06-18 00:34:00,
2013-06-17 20:39:00,84.2,75.8,30.01,WSW,237,0.0,0.0,76,0.00,,,0.00,Wunderground v.1.15,2013-06-18 00:39:00,
2013-06-17 20:44:00,84.1,76.1,30.01,WSW,237,0.0,1.0,77,0.00,,,0.00,Wunderground v.1.15,2013-06-18 00:44:00,
2013-06-17 20:49:00,84.0,76.0,30.01,WSW,237,0.0,0.0,77,0.00,,,0.00,Wunderground v.1.15,2013-06-18 00:49:00,
2013-06-17 20:54:00,83.9,75.9,30.01,WSW,237,0.0,2.0,77,0.00,,,0.00,Wunderground v.1.15,2013-06-18 00:54:00,
2013-06-17 20:59:00,83.8,76.2,30.02,WSW,237,0.0,0.0,78,0.00,,,0.00,Wunderground v.1.15,2013-06-18 00:59:00,
2013-06-17 21:04:00,83.8,76.2,30.02,WSW,237,0.0,0.0,78,0.00,,,0.00,Wunderground v.1.15,2013-06-18 01:04:00,
2013-06-17 21:09:00,83.8,76.6,30.02,WSW,237,0.0,1.0,79,0.00,,,0.00,Wunderground v.1.15,2013-06-18 01:09:00,
2013-06-17 21:14:00,83.7,76.5,30.02,WSW,237,0.0,1.0,79,0.00,,,0.00,Wunderground v.1.15,2013-06-18 01:14:00,
2013-06-17 21:19:00,83.6,76.4,30.02,WSW,237,0.0,0.0,79,0.00,,,0.00,Wunderground v.1.15,2013-06-18 01:19:00,
2013-06-17 21:24:00,83.5,76.7,30.02,WSW,237,0.0,0.0,80,0.00,,,0.00,Wunderground v.1.15,2013-06-18 01:24:00,
2013-06-17 21:29:00,83.5,76.7,30.02,WSW,237,0.0,0.0,80,0.00,,,0.00,Wunderground v.1.15,2013-06-18 01:29:00,
2013-06-17 21:34:00,83.4,76.6,30.02,WSW,237,0.0,0.0,80,0.00,,,0.00,Wunderground v.1.15,2013-06-18 01:34:00,
2013-06-17 21:39:00,83.3,76.5,30.01,WSW,252,0.0,0.0,80,0.00,,,0.00,Wunderground v.1.15,2013-06-18 01:39:00,
2013-06-17 21:44:00,83.2,76.4,30.02,WSW,252,0.0,1.0,80,0.00,,,0.00,Wunderground v.1.15,2013-06-18 01:44:00,
2013-06-17 21:49:00,83.1,76.3,30.02,WSW,252,0.0,0.0,80,0.00,,,0.00,Wunderground v.1.15,2013-06-18 01:49:00,
2013-06-17 21:54:00,83.0,76.6,30.02,WSW,252,0.0,1.0,81,0.00,,,0.00,Wunderground v.1.15,2013-06-18 01:54:00,
2013-06-17 22:00:00,83.0,76.6,30.03,WSW,252,0.0,0.0,81,0.00,,,0.00,Wunderground v.1.15,2013-06-18 02:00:00,
2013-06-17 22:05:00,83.0,76.6,30.03,WSW,252,0.0,1.0,81,0.00,,,0.00,Wunderground v.1.15,2013-06-18 02:05:00,
2013-06-17 22:10:00,83.0,76.6,30.03,WSW,252,0.0,0.0,81,0.00,,,0.00,Wunderground v.1.15,2013-06-18 02:10:00,
2013-06-17 22:15:00,82.9,76.5,30.03,WSW,252,0.0,1.0,81,0.00,,,0.00,Wunderground v.1.15,2013-06-18 02:15:00,
2013-06-17 22:20:00,82.9,76.5,30.03,WSW,252,0.0,0.0,81,0.00,,,0.00,Wunderground v.1.15,2013-06-18 02:20:00,
2013-06-17 22:25:00,83.0,76.6,30.04,WSW,252,0.0,0.0,81,0.00,,,0.00,Wunderground v.1.15,2013-06-18 02:25:00,
2013-06-17 22:30:00,82.9,76.5,30.04,WSW,252,0.0,0.0,81,0.00,,,0.00,Wunderground v.1.15,2013-06-18 02:30:00,
2013-06-17 22:35:00,82.8,76.4,30.05,WSW,252,0.0,0.0,81,0.00,,,0.00,Wunderground v.1.15,2013-06-18 02:35:00,
2013-06-17 22:40:00,82.8,76.7,30.05,WSW,252,0.0,0.0,82,0.00,,,0.00,Wunderground v.1.15,2013-06-18 02:40:00,
2013-06-17 22:45:00,82.7,76.6,30.05,WSW,252,0.0,0.0,82,0.00,,,0.00,Wunderground v.1.15,2013-06-18 02:45:00,
2013-06-17 22:50:00,82.6,76.5,30.05,WSW,252,0.0,0.0,82,0.00,,,0.00,Wunderground v.1.15,2013-06-18 02:50:00,
2013-06-17 22:55:00,82.5,76.4,30.05,WSW,252,0.0,0.0,82,0.00,,,0.00,Wunderground v.1.15,2013-06-18 02:55:00,
2013-06-17 23:00:00,82.5,76.4,30.05,WSW,252,0.0,0.0,82,0.00,,,0.00,Wunderground v.1.15,2013-06-18 03:00:00,
2013-06-17 23:05:00,82.5,76.8,30.05,WSW,252,0.0,0.0,83,0.00,,,0.00,Wunderground v.1.15,2013-06-18 03:05:00,
2013-06-17 23:10:00,82.5,76.8,30.04,WSW,252,0.0,0.0,83,0.00,,,0.00,Wunderground v.1.15,2013-06-18 03:10:00,
2013-06-17 23:15:00,82.4,76.3,30.04,WSW,252,0.0,1.0,82,0.00,,,0.00,Wunderground v.1.15,2013-06-18 03:15:00,
2013-06-17 23:20:00,82.3,76.6,30.04,WSW,252,0.0,0.0,83,0.00,,,0.00,Wunderground v.1.15,2013-06-18 03:20:00,
2013-06-17 23:25:00,82.2,76.5,30.04,WSW,252,0.0,0.0,83,0.00,,,0.00,Wunderground v.1.15,2013-06-18 03:25:00,
2013-06-17 23:30:00,82.2,76.5,30.04,WSW,252,0.0,0.0,83,0.00,,,0.00,Wunderground v.1.15,2013-06-18 03:30:00,
2013-06-17 23:35:00,82.1,76.4,30.05,WSW,252,0.0,0.0,83,0.00,,,0.00,Wunderground v.1.15,2013-06-18 03:35:00,
2013-06-17 23:40:00,82.1,76.4,30.05,WSW,252,0.0,0.0,83,0.00,,,0.00,Wunderground v.1.15,2013-06-18 03:40:00,
2013-06-17 23:45:00,82.0,76.3,30.05,WSW,252,0.0,0.0,83,0.00,,,0.00,Wunderground v.1.15,2013-06-18 03:45:00,
2013-06-17 23:50:00,81.9,76.2,30.05,WSW,252,0.0,0.0,83,0.00,,,0.00,Wunderground v.1.15,2013-06-18 03:50:00,
2013-06-17 23:55:00,81.9,76.2,30.05,WSW,252,0.0,0.0,83,0.00,,,0.00,Wunderground v.1.15,2013-06-18 03:55:00,